Location: Hains Lake
(37.8540°N, 99.8578°W)
Time: 21:26:21
(UTC+00:00)

deb Explorer IX - Pass Details

Date: 27 April 2021
Orbit: 541 x 1098 km, 38.8° (Epoch: 13 May)

Event Time Altitude Azimuth Distance (km) Brightness Sun altitude
Rises 09:51:30 0° 228° (SW) 2,828 - -21.0°
Reaches altitude 10° 09:54:01 10° 218° (SW) 1,871 - -20.6°
Exits shadow 09:57:23 32° 168° (SSE) 952 ? -20.1°
Maximum altitude 09:57:49 33° 154° (SSE) 931 ? -20.0°
Drops below altitude 10° 10:01:29 10° 89° (E) 1,795 ? -19.4°
Sets 10:03:51 0° 80° (E) 2,694 ? -19.1°
